#datetime,building,power
2022-07-03T00:00:00,mcc,59.77
2022-07-03T00:01:00,mcc,61.87
2022-07-03T00:02:00,mcc,64.49
2022-07-03T00:03:00,mcc,67.02
2022-07-03T00:04:00,mcc,65.52
2022-07-03T00:05:00,mcc,61.43
2022-07-03T00:06:00,mcc,62.28
2022-07-03T00:07:00,mcc,62.84
2022-07-03T00:08:00,mcc,61.38
2022-07-03T00:09:00,mcc,60.53
2022-07-03T00:10:00,mcc,63.56
2022-07-03T00:11:00,mcc,63.09
2022-07-03T00:12:00,mcc,59.77
2022-07-03T00:13:00,mcc,68.02
2022-07-03T00:14:00,mcc,60.69
2022-07-03T00:15:00,mcc,59.70
2022-07-03T00:16:00,mcc,60.79
2022-07-03T00:17:00,mcc,58.29
2022-07-03T00:18:00,mcc,56.05
2022-07-03T00:19:00,mcc,56.33
2022-07-03T00:20:00,mcc,56.62
2022-07-03T00:21:00,mcc,56.51
2022-07-03T00:22:00,mcc,58.02
2022-07-03T00:23:00,mcc,58.15
2022-07-03T00:24:00,mcc,58.76
2022-07-03T00:25:00,mcc,56.47
2022-07-03T00:26:00,mcc,56.29
2022-07-03T00:27:00,mcc,58.30
2022-07-03T00:28:00,mcc,54.12
2022-07-03T00:29:00,mcc,56.30
2022-07-03T00:30:00,mcc,55.56
2022-07-03T00:31:00,mcc,61.78
2022-07-03T00:32:00,mcc,57.96
2022-07-03T00:33:00,mcc,51.88
2022-07-03T00:34:00,mcc,50.93
2022-07-03T00:35:00,mcc,51.75
2022-07-03T00:36:00,mcc,51.33
2022-07-03T00:37:00,mcc,56.10
2022-07-03T00:38:00,mcc,53.23
2022-07-03T00:39:00,mcc,53.74
2022-07-03T00:40:00,mcc,53.82
2022-07-03T00:41:00,mcc,53.13
2022-07-03T00:42:00,mcc,56.44
2022-07-03T00:43:00,mcc,54.85
2022-07-03T00:44:00,mcc,54.40
2022-07-03T00:45:00,mcc,58.01
2022-07-03T00:46:00,mcc,63.85
2022-07-03T00:47:00,mcc,64.13
2022-07-03T00:48:00,mcc,61.65
2022-07-03T00:49:00,mcc,61.64
2022-07-03T00:50:00,mcc,60.64
2022-07-03T00:51:00,mcc,50.41
2022-07-03T00:52:00,mcc,52.50
2022-07-03T00:53:00,mcc,48.88
2022-07-03T00:54:00,mcc,49.43
2022-07-03T00:55:00,mcc,47.90
2022-07-03T00:56:00,mcc,46.77
2022-07-03T00:57:00,mcc,47.49
2022-07-03T00:58:00,mcc,46.94
2022-07-03T00:59:00,mcc,46.94
2022-07-03T01:00:00,mcc,47.22
2022-07-03T01:01:00,mcc,45.98
2022-07-03T01:02:00,mcc,47.02
2022-07-03T01:03:00,mcc,48.16
2022-07-03T01:04:00,mcc,46.16
2022-07-03T01:05:00,mcc,44.40
2022-07-03T01:06:00,mcc,44.12
2022-07-03T01:07:00,mcc,42.64
2022-07-03T01:08:00,mcc,44.49
2022-07-03T01:09:00,mcc,53.88
2022-07-03T01:10:00,mcc,44.53
2022-07-03T01:11:00,mcc,44.93
2022-07-03T01:12:00,mcc,44.07
2022-07-03T01:13:00,mcc,47.99
2022-07-03T01:14:00,mcc,53.01
2022-07-03T01:15:00,mcc,52.16
2022-07-03T01:16:00,mcc,49.69
2022-07-03T01:17:00,mcc,48.29
2022-07-03T01:18:00,mcc,44.04
2022-07-03T01:19:00,mcc,43.02
2022-07-03T01:20:00,mcc,42.65
2022-07-03T01:21:00,mcc,43.12
2022-07-03T01:22:00,mcc,55.30
2022-07-03T01:23:00,mcc,47.96
2022-07-03T01:24:00,mcc,46.94
2022-07-03T01:25:00,mcc,48.23
2022-07-03T01:26:00,mcc,48.42
2022-07-03T01:27:00,mcc,49.88
2022-07-03T01:28:00,mcc,52.89
2022-07-03T01:29:00,mcc,59.81
2022-07-03T01:30:00,mcc,50.73
2022-07-03T01:31:00,mcc,52.32
2022-07-03T01:32:00,mcc,50.78
2022-07-03T01:33:00,mcc,50.59
2022-07-03T01:34:00,mcc,48.50
2022-07-03T01:35:00,mcc,50.07
2022-07-03T01:36:00,mcc,50.35
2022-07-03T01:37:00,mcc,46.59
2022-07-03T01:38:00,mcc,48.15
2022-07-03T01:39:00,mcc,48.16
2022-07-03T01:40:00,mcc,47.83
2022-07-03T01:41:00,mcc,47.84
2022-07-03T01:42:00,mcc,47.33
2022-07-03T01:43:00,mcc,47.98
2022-07-03T01:44:00,mcc,49.67
2022-07-03T01:45:00,mcc,49.23
2022-07-03T01:46:00,mcc,46.95
2022-07-03T01:47:00,mcc,45.03
2022-07-03T01:48:00,mcc,45.26
2022-07-03T01:49:00,mcc,47.31
2022-07-03T01:50:00,mcc,44.52
2022-07-03T01:51:00,mcc,43.74
2022-07-03T01:52:00,mcc,46.37
2022-07-03T01:53:00,mcc,44.97
2022-07-03T01:54:00,mcc,47.79
2022-07-03T01:55:00,mcc,47.97
2022-07-03T01:56:00,mcc,48.76
2022-07-03T01:57:00,mcc,50.95
2022-07-03T01:58:00,mcc,49.76
2022-07-03T01:59:00,mcc,51.14
2022-07-03T02:00:00,mcc,49.33
2022-07-03T02:01:00,mcc,48.43
2022-07-03T02:02:00,mcc,48.44
2022-07-03T02:03:00,mcc,46.82
2022-07-03T02:04:00,mcc,48.93
2022-07-03T02:05:00,mcc,46.21
2022-07-03T02:06:00,mcc,44.22
2022-07-03T02:07:00,mcc,46.30
2022-07-03T02:08:00,mcc,52.64
2022-07-03T02:09:00,mcc,44.67
2022-07-03T02:10:00,mcc,42.81
2022-07-03T02:11:00,mcc,45.54
2022-07-03T02:12:00,mcc,46.26
2022-07-03T02:13:00,mcc,45.23
2022-07-03T02:14:00,mcc,46.89
2022-07-03T02:15:00,mcc,49.78
2022-07-03T02:16:00,mcc,45.67
2022-07-03T02:17:00,mcc,45.55
2022-07-03T02:18:00,mcc,46.21
2022-07-03T02:19:00,mcc,46.62
2022-07-03T02:20:00,mcc,48.85
2022-07-03T02:21:00,mcc,45.25
2022-07-03T02:22:00,mcc,45.89
2022-07-03T02:23:00,mcc,46.17
2022-07-03T02:24:00,mcc,48.59
2022-07-03T02:25:00,mcc,53.88
2022-07-03T02:26:00,mcc,50.30
2022-07-03T02:27:00,mcc,50.26
2022-07-03T02:28:00,mcc,49.27
2022-07-03T02:29:00,mcc,49.17
2022-07-03T02:30:00,mcc,51.35
2022-07-03T02:31:00,mcc,48.76
2022-07-03T02:32:00,mcc,50.55
2022-07-03T02:33:00,mcc,48.47
2022-07-03T02:34:00,mcc,51.16
2022-07-03T02:35:00,mcc,52.32
2022-07-03T02:36:00,mcc,48.90
2022-07-03T02:37:00,mcc,49.14
2022-07-03T02:38:00,mcc,53.50
2022-07-03T02:39:00,mcc,50.34
2022-07-03T02:40:00,mcc,49.93
2022-07-03T02:41:00,mcc,49.70
2022-07-03T02:42:00,mcc,47.52
2022-07-03T02:43:00,mcc,62.92
2022-07-03T02:44:00,mcc,60.77
2022-07-03T02:45:00,mcc,48.38
2022-07-03T02:46:00,mcc,50.79
2022-07-03T02:47:00,mcc,50.00
2022-07-03T02:48:00,mcc,49.10
2022-07-03T02:49:00,mcc,49.30
2022-07-03T02:50:00,mcc,48.62
2022-07-03T02:51:00,mcc,52.05
2022-07-03T02:52:00,mcc,48.23
2022-07-03T02:53:00,mcc,49.97
2022-07-03T02:54:00,mcc,50.22
2022-07-03T02:55:00,mcc,49.23
2022-07-03T02:56:00,mcc,51.61
2022-07-03T02:57:00,mcc,46.84
2022-07-03T02:58:00,mcc,47.28
2022-07-03T02:59:00,mcc,47.88
2022-07-03T03:00:00,mcc,47.76
2022-07-03T03:01:00,mcc,51.07
2022-07-03T03:02:00,mcc,53.80
2022-07-03T03:03:00,mcc,44.74
2022-07-03T03:04:00,mcc,44.56
2022-07-03T03:05:00,mcc,43.39
2022-07-03T03:06:00,mcc,53.66
2022-07-03T03:07:00,mcc,43.46
2022-07-03T03:08:00,mcc,44.30
2022-07-03T03:09:00,mcc,45.11
2022-07-03T03:10:00,mcc,42.91
2022-07-03T03:11:00,mcc,42.18
2022-07-03T03:12:00,mcc,44.01
2022-07-03T03:13:00,mcc,43.02
2022-07-03T03:14:00,mcc,44.71
2022-07-03T03:15:00,mcc,43.64
2022-07-03T03:16:00,mcc,42.01
2022-07-03T03:17:00,mcc,47.43
2022-07-03T03:18:00,mcc,44.22
2022-07-03T03:19:00,mcc,46.67
2022-07-03T03:20:00,mcc,46.03
2022-07-03T03:21:00,mcc,45.48
2022-07-03T03:22:00,mcc,50.67
2022-07-03T03:23:00,mcc,46.09
2022-07-03T03:24:00,mcc,44.95
2022-07-03T03:25:00,mcc,44.84
2022-07-03T03:26:00,mcc,45.56
2022-07-03T03:27:00,mcc,51.07
2022-07-03T03:28:00,mcc,49.02
2022-07-03T03:29:00,mcc,49.70
2022-07-03T03:30:00,mcc,48.66
2022-07-03T03:31:00,mcc,47.82
2022-07-03T03:32:00,mcc,48.88
2022-07-03T03:33:00,mcc,47.84
2022-07-03T03:34:00,mcc,46.45
2022-07-03T03:35:00,mcc,47.09
2022-07-03T03:36:00,mcc,43.90
2022-07-03T03:37:00,mcc,47.97
2022-07-03T03:38:00,mcc,46.11
2022-07-03T03:39:00,mcc,44.95
2022-07-03T03:40:00,mcc,44.68
2022-07-03T03:41:00,mcc,44.18
2022-07-03T03:42:00,mcc,47.15
2022-07-03T03:43:00,mcc,47.25
2022-07-03T03:44:00,mcc,48.11
2022-07-03T03:45:00,mcc,56.76
2022-07-03T03:46:00,mcc,46.01
2022-07-03T03:47:00,mcc,45.33
2022-07-03T03:48:00,mcc,46.52
2022-07-03T03:49:00,mcc,48.27
2022-07-03T03:50:00,mcc,47.98
2022-07-03T03:51:00,mcc,45.98
2022-07-03T03:52:00,mcc,46.14
2022-07-03T03:53:00,mcc,46.23
2022-07-03T03:54:00,mcc,45.17
2022-07-03T03:55:00,mcc,48.13
2022-07-03T03:56:00,mcc,48.25
2022-07-03T03:57:00,mcc,47.37
2022-07-03T03:58:00,mcc,46.55
2022-07-03T03:59:00,mcc,45.02
2022-07-03T04:00:00,mcc,45.94
2022-07-03T04:01:00,mcc,47.59
2022-07-03T04:02:00,mcc,46.52
2022-07-03T04:03:00,mcc,48.91
2022-07-03T04:04:00,mcc,45.44
2022-07-03T04:05:00,mcc,44.85
2022-07-03T04:06:00,mcc,59.23
2022-07-03T04:07:00,mcc,45.99
2022-07-03T04:08:00,mcc,49.15
2022-07-03T04:09:00,mcc,47.66
2022-07-03T04:10:00,mcc,46.12
2022-07-03T04:11:00,mcc,46.77
2022-07-03T04:12:00,mcc,48.15
2022-07-03T04:13:00,mcc,47.20
2022-07-03T04:14:00,mcc,46.44
2022-07-03T04:15:00,mcc,44.67
2022-07-03T04:16:00,mcc,48.71
2022-07-03T04:17:00,mcc,45.52
2022-07-03T04:18:00,mcc,47.00
2022-07-03T04:19:00,mcc,47.37
2022-07-03T04:20:00,mcc,47.00
2022-07-03T04:21:00,mcc,48.32
2022-07-03T04:22:00,mcc,49.01
2022-07-03T04:23:00,mcc,48.93
2022-07-03T04:24:00,mcc,51.90
2022-07-03T04:25:00,mcc,48.38
2022-07-03T04:26:00,mcc,48.90
2022-07-03T04:27:00,mcc,49.34
2022-07-03T04:28:00,mcc,45.54
2022-07-03T04:29:00,mcc,46.73
2022-07-03T04:30:00,mcc,45.93
2022-07-03T04:31:00,mcc,45.21
2022-07-03T04:32:00,mcc,47.12
2022-07-03T04:33:00,mcc,45.06
2022-07-03T04:34:00,mcc,44.16
2022-07-03T04:35:00,mcc,45.41
2022-07-03T04:36:00,mcc,44.80
2022-07-03T04:37:00,mcc,44.89
2022-07-03T04:38:00,mcc,44.82
2022-07-03T04:39:00,mcc,44.09
2022-07-03T04:40:00,mcc,48.32
2022-07-03T04:41:00,mcc,44.76
2022-07-03T04:42:00,mcc,44.30
2022-07-03T04:43:00,mcc,44.84
2022-07-03T04:44:00,mcc,54.11
2022-07-03T04:45:00,mcc,47.35
2022-07-03T04:46:00,mcc,43.92
2022-07-03T04:47:00,mcc,42.81
2022-07-03T04:48:00,mcc,44.80
2022-07-03T04:49:00,mcc,45.85
2022-07-03T04:50:00,mcc,47.87
2022-07-03T04:51:00,mcc,46.93
2022-07-03T04:52:00,mcc,48.77
2022-07-03T04:53:00,mcc,48.20
2022-07-03T04:54:00,mcc,46.42
2022-07-03T04:55:00,mcc,47.72
2022-07-03T04:56:00,mcc,48.28
2022-07-03T04:57:00,mcc,43.73
2022-07-03T04:58:00,mcc,45.55
2022-07-03T04:59:00,mcc,44.45
2022-07-03T05:00:00,mcc,47.35
2022-07-03T05:01:00,mcc,47.49
2022-07-03T05:02:00,mcc,45.27
2022-07-03T05:03:00,mcc,52.35
2022-07-03T05:04:00,mcc,43.99
2022-07-03T05:05:00,mcc,44.97
2022-07-03T05:06:00,mcc,45.21
2022-07-03T05:07:00,mcc,42.08
2022-07-03T05:08:00,mcc,41.60
2022-07-03T05:09:00,mcc,43.09
2022-07-03T05:10:00,mcc,44.44
2022-07-03T05:11:00,mcc,44.75
2022-07-03T05:12:00,mcc,40.31
2022-07-03T05:13:00,mcc,42.01
2022-07-03T05:14:00,mcc,45.24
2022-07-03T05:15:00,mcc,43.27
2022-07-03T05:16:00,mcc,44.83
2022-07-03T05:17:00,mcc,44.60
2022-07-03T05:18:00,mcc,42.72
2022-07-03T05:19:00,mcc,44.59
2022-07-03T05:20:00,mcc,43.23
2022-07-03T05:21:00,mcc,45.50
2022-07-03T05:22:00,mcc,44.32
2022-07-03T05:23:00,mcc,55.39
2022-07-03T05:24:00,mcc,67.02
2022-07-03T05:25:00,mcc,66.39
2022-07-03T05:26:00,mcc,57.55
2022-07-03T05:27:00,mcc,49.77
2022-07-03T05:28:00,mcc,44.68
2022-07-03T05:29:00,mcc,43.54
2022-07-03T05:30:00,mcc,42.66
2022-07-03T05:31:00,mcc,42.10
2022-07-03T05:32:00,mcc,45.25
2022-07-03T05:33:00,mcc,41.65
2022-07-03T05:34:00,mcc,43.44
2022-07-03T05:35:00,mcc,43.86
2022-07-03T05:36:00,mcc,41.45
2022-07-03T05:37:00,mcc,41.30
2022-07-03T05:38:00,mcc,42.59
2022-07-03T05:39:00,mcc,43.52
2022-07-03T05:40:00,mcc,46.90
2022-07-03T05:41:00,mcc,44.10
2022-07-03T05:42:00,mcc,52.27
2022-07-03T05:43:00,mcc,44.15
2022-07-03T05:44:00,mcc,44.86
2022-07-03T05:45:00,mcc,48.81
2022-07-03T05:46:00,mcc,45.36
2022-07-03T05:47:00,mcc,44.75
2022-07-03T05:48:00,mcc,44.25
2022-07-03T05:49:00,mcc,46.05
2022-07-03T05:50:00,mcc,46.56
2022-07-03T05:51:00,mcc,44.68
2022-07-03T05:52:00,mcc,48.04
2022-07-03T05:53:00,mcc,44.68
2022-07-03T05:54:00,mcc,43.89
2022-07-03T05:55:00,mcc,44.76
2022-07-03T05:56:00,mcc,43.92
2022-07-03T05:57:00,mcc,45.37
2022-07-03T05:58:00,mcc,48.39
2022-07-03T05:59:00,mcc,44.20
2022-07-03T06:00:00,mcc,45.38
2022-07-03T06:01:00,mcc,53.97
2022-07-03T06:02:00,mcc,44.78
2022-07-03T06:03:00,mcc,48.09
2022-07-03T06:04:00,mcc,46.47
2022-07-03T06:05:00,mcc,45.03
2022-07-03T06:06:00,mcc,46.68
2022-07-03T06:07:00,mcc,43.60
2022-07-03T06:08:00,mcc,44.15
2022-07-03T06:09:00,mcc,45.08
2022-07-03T06:10:00,mcc,46.64
2022-07-03T06:11:00,mcc,50.91
2022-07-03T06:12:00,mcc,45.82
2022-07-03T06:13:00,mcc,45.81
2022-07-03T06:14:00,mcc,46.64
2022-07-03T06:15:00,mcc,48.55
2022-07-03T06:16:00,mcc,49.32
2022-07-03T06:17:00,mcc,48.65
2022-07-03T06:18:00,mcc,46.25
2022-07-03T06:19:00,mcc,46.54
2022-07-03T06:20:00,mcc,47.01
2022-07-03T06:21:00,mcc,59.06
2022-07-03T06:22:00,mcc,47.21
2022-07-03T06:23:00,mcc,46.02
2022-07-03T06:24:00,mcc,47.26
2022-07-03T06:25:00,mcc,53.24
2022-07-03T06:26:00,mcc,52.26
2022-07-03T06:27:00,mcc,52.07
2022-07-03T06:28:00,mcc,50.33
2022-07-03T06:29:00,mcc,45.86
2022-07-03T06:30:00,mcc,44.14
2022-07-03T06:31:00,mcc,43.46
2022-07-03T06:32:00,mcc,42.27
2022-07-03T06:33:00,mcc,44.91
2022-07-03T06:34:00,mcc,48.00
2022-07-03T06:35:00,mcc,44.71
2022-07-03T06:36:00,mcc,45.09
2022-07-03T06:37:00,mcc,46.39
2022-07-03T06:38:00,mcc,43.63
2022-07-03T06:39:00,mcc,44.89
2022-07-03T06:40:00,mcc,44.17
2022-07-03T06:41:00,mcc,65.79
2022-07-03T06:42:00,mcc,60.06
2022-07-03T06:43:00,mcc,44.74
2022-07-03T06:44:00,mcc,46.70
2022-07-03T06:45:00,mcc,49.29
2022-07-03T06:46:00,mcc,47.02
2022-07-03T06:47:00,mcc,45.97
2022-07-03T06:48:00,mcc,45.06
2022-07-03T06:49:00,mcc,45.70
2022-07-03T06:50:00,mcc,46.15
2022-07-03T06:51:00,mcc,42.76
2022-07-03T06:52:00,mcc,43.20
2022-07-03T06:53:00,mcc,43.27
2022-07-03T06:54:00,mcc,43.17
2022-07-03T06:55:00,mcc,45.63
2022-07-03T06:56:00,mcc,43.43
2022-07-03T06:57:00,mcc,43.78
2022-07-03T06:58:00,mcc,43.61
2022-07-03T06:59:00,mcc,42.87
2022-07-03T07:00:00,mcc,52.53
2022-07-03T07:01:00,mcc,42.83
2022-07-03T07:02:00,mcc,42.77
2022-07-03T07:03:00,mcc,42.85
2022-07-03T07:04:00,mcc,44.10
2022-07-03T07:05:00,mcc,44.92
2022-07-03T07:06:00,mcc,44.01
2022-07-03T07:07:00,mcc,42.96
2022-07-03T07:08:00,mcc,42.95
2022-07-03T07:09:00,mcc,43.77
2022-07-03T07:10:00,mcc,46.07
2022-07-03T07:11:00,mcc,45.74
2022-07-03T07:12:00,mcc,45.91
2022-07-03T07:13:00,mcc,46.79
2022-07-03T07:14:00,mcc,44.26
2022-07-03T07:15:00,mcc,45.96
2022-07-03T07:16:00,mcc,44.02
2022-07-03T07:17:00,mcc,45.52
2022-07-03T07:18:00,mcc,49.22
2022-07-03T07:19:00,mcc,53.97
2022-07-03T07:20:00,mcc,43.45
2022-07-03T07:21:00,mcc,44.21
2022-07-03T07:22:00,mcc,43.98
2022-07-03T07:23:00,mcc,45.44
2022-07-03T07:24:00,mcc,43.22
2022-07-03T07:25:00,mcc,44.38
2022-07-03T07:26:00,mcc,44.69
2022-07-03T07:27:00,mcc,43.13
2022-07-03T07:28:00,mcc,44.37
2022-07-03T07:29:00,mcc,44.40
2022-07-03T07:30:00,mcc,44.07
2022-07-03T07:31:00,mcc,46.91
2022-07-03T07:32:00,mcc,45.90
2022-07-03T07:33:00,mcc,47.96
2022-07-03T07:34:00,mcc,45.52
2022-07-03T07:35:00,mcc,43.86
2022-07-03T07:36:00,mcc,46.32
2022-07-03T07:37:00,mcc,44.32
2022-07-03T07:38:00,mcc,45.36
2022-07-03T07:39:00,mcc,45.55
2022-07-03T07:40:00,mcc,46.81
2022-07-03T07:41:00,mcc,46.31
2022-07-03T07:42:00,mcc,43.49
2022-07-03T07:43:00,mcc,43.10
2022-07-03T07:44:00,mcc,47.01
2022-07-03T07:45:00,mcc,44.76
2022-07-03T07:46:00,mcc,45.45
2022-07-03T07:47:00,mcc,46.57
2022-07-03T07:48:00,mcc,43.98
2022-07-03T07:49:00,mcc,48.01
2022-07-03T07:50:00,mcc,44.97
2022-07-03T07:51:00,mcc,47.32
2022-07-03T07:52:00,mcc,46.09
2022-07-03T07:53:00,mcc,45.61
2022-07-03T07:54:00,mcc,46.99
2022-07-03T07:55:00,mcc,45.18
2022-07-03T07:56:00,mcc,44.57
2022-07-03T07:57:00,mcc,51.66
2022-07-03T07:58:00,mcc,43.59
2022-07-03T07:59:00,mcc,42.93
2022-07-03T08:00:00,mcc,40.51
2022-07-03T08:01:00,mcc,42.58
2022-07-03T08:02:00,mcc,59.42
2022-07-03T08:03:00,mcc,47.42
2022-07-03T08:04:00,mcc,50.90
2022-07-03T08:05:00,mcc,52.81
2022-07-03T08:06:00,mcc,52.32
2022-07-03T08:07:00,mcc,52.73
2022-07-03T08:08:00,mcc,52.91
2022-07-03T08:09:00,mcc,55.18
2022-07-03T08:10:00,mcc,52.87
2022-07-03T08:11:00,mcc,53.29
2022-07-03T08:12:00,mcc,54.84
2022-07-03T08:13:00,mcc,52.56
2022-07-03T08:14:00,mcc,54.07
2022-07-03T08:15:00,mcc,53.21
2022-07-03T08:16:00,mcc,53.96
2022-07-03T08:17:00,mcc,54.59
2022-07-03T08:18:00,mcc,50.90
2022-07-03T08:19:00,mcc,51.26
2022-07-03T08:20:00,mcc,52.32
2022-07-03T08:21:00,mcc,50.09
2022-07-03T08:22:00,mcc,50.65
2022-07-03T08:23:00,mcc,50.28
2022-07-03T08:24:00,mcc,49.04
2022-07-03T08:25:00,mcc,51.12
2022-07-03T08:26:00,mcc,47.94
2022-07-03T08:27:00,mcc,47.39
2022-07-03T08:28:00,mcc,47.92
2022-07-03T08:29:00,mcc,48.21
2022-07-03T08:30:00,mcc,49.97
2022-07-03T08:31:00,mcc,46.02
2022-07-03T08:32:00,mcc,46.07
2022-07-03T08:33:00,mcc,46.45
2022-07-03T08:34:00,mcc,49.10
2022-07-03T08:35:00,mcc,51.87
2022-07-03T08:36:00,mcc,49.30
2022-07-03T08:37:00,mcc,50.49
2022-07-03T08:38:00,mcc,50.39
2022-07-03T08:39:00,mcc,49.08
2022-07-03T08:40:00,mcc,52.69
2022-07-03T08:41:00,mcc,49.27
2022-07-03T08:42:00,mcc,50.63
2022-07-03T08:43:00,mcc,52.41
2022-07-03T08:44:00,mcc,53.03
2022-07-03T08:45:00,mcc,54.30
2022-07-03T08:46:00,mcc,53.11
2022-07-03T08:47:00,mcc,50.92
2022-07-03T08:48:00,mcc,52.25
2022-07-03T08:49:00,mcc,50.39
2022-07-03T08:50:00,mcc,51.99
2022-07-03T08:51:00,mcc,51.95
2022-07-03T08:52:00,mcc,59.59
2022-07-03T08:53:00,mcc,59.59
2022-07-03T08:54:00,mcc,68.89
2022-07-03T08:55:00,mcc,57.49
2022-07-03T08:56:00,mcc,57.63
2022-07-03T08:57:00,mcc,53.35
2022-07-03T08:58:00,mcc,54.95
2022-07-03T08:59:00,mcc,56.11
2022-07-03T09:00:00,mcc,56.17
2022-07-03T09:01:00,mcc,58.69
2022-07-03T09:02:00,mcc,56.43
2022-07-03T09:03:00,mcc,58.64
2022-07-03T09:04:00,mcc,58.42
2022-07-03T09:05:00,mcc,60.46
2022-07-03T09:06:00,mcc,62.34
2022-07-03T09:07:00,mcc,60.69
2022-07-03T09:08:00,mcc,60.82
2022-07-03T09:09:00,mcc,61.89
2022-07-03T09:10:00,mcc,62.92
2022-07-03T09:11:00,mcc,64.56
2022-07-03T09:12:00,mcc,61.01
2022-07-03T09:13:00,mcc,68.78
2022-07-03T09:14:00,mcc,57.81
2022-07-03T09:15:00,mcc,57.25
2022-07-03T09:16:00,mcc,58.45
2022-07-03T09:17:00,mcc,56.90
2022-07-03T09:18:00,mcc,57.60
2022-07-03T09:19:00,mcc,71.60
2022-07-03T09:20:00,mcc,56.88
2022-07-03T09:21:00,mcc,56.51
2022-07-03T09:22:00,mcc,58.19
2022-07-03T09:23:00,mcc,58.83
2022-07-03T09:24:00,mcc,61.56
2022-07-03T09:25:00,mcc,58.30
2022-07-03T09:26:00,mcc,58.12
2022-07-03T09:27:00,mcc,60.10
2022-07-03T09:28:00,mcc,49.77
2022-07-03T09:29:00,mcc,50.65
2022-07-03T09:30:00,mcc,50.19
2022-07-03T09:31:00,mcc,48.65
2022-07-03T09:32:00,mcc,60.72
2022-07-03T09:33:00,mcc,48.84
2022-07-03T09:34:00,mcc,49.44
2022-07-03T09:35:00,mcc,52.44
2022-07-03T09:36:00,mcc,51.65
2022-07-03T09:37:00,mcc,55.27
2022-07-03T09:38:00,mcc,52.36
2022-07-03T09:39:00,mcc,52.28
2022-07-03T09:40:00,mcc,54.05
2022-07-03T09:41:00,mcc,54.73
2022-07-03T09:42:00,mcc,57.84
2022-07-03T09:43:00,mcc,55.27
2022-07-03T09:44:00,mcc,53.49
2022-07-03T09:45:00,mcc,54.05
2022-07-03T09:46:00,mcc,51.09
2022-07-03T09:47:00,mcc,56.17
2022-07-03T09:48:00,mcc,53.09
2022-07-03T09:49:00,mcc,51.03
2022-07-03T09:50:00,mcc,51.18
2022-07-03T09:51:00,mcc,61.12
2022-07-03T09:52:00,mcc,59.57
2022-07-03T09:53:00,mcc,50.70
2022-07-03T09:54:00,mcc,50.08
2022-07-03T09:55:00,mcc,51.39
2022-07-03T09:56:00,mcc,49.71
2022-07-03T09:57:00,mcc,65.66
2022-07-03T09:58:00,mcc,63.34
2022-07-03T09:59:00,mcc,62.24
2022-07-03T10:00:00,mcc,61.61
2022-07-03T10:01:00,mcc,51.58
2022-07-03T10:02:00,mcc,53.64
2022-07-03T10:03:00,mcc,53.66
2022-07-03T10:04:00,mcc,53.22
2022-07-03T10:05:00,mcc,56.52
2022-07-03T10:06:00,mcc,53.66
2022-07-03T10:07:00,mcc,55.40
2022-07-03T10:08:00,mcc,56.43
2022-07-03T10:09:00,mcc,61.93
2022-07-03T10:10:00,mcc,55.76
2022-07-03T10:11:00,mcc,52.92
2022-07-03T10:12:00,mcc,52.38
2022-07-03T10:13:00,mcc,51.31
2022-07-03T10:14:00,mcc,49.21
2022-07-03T10:15:00,mcc,51.63
2022-07-03T10:16:00,mcc,50.21
2022-07-03T10:17:00,mcc,51.38
2022-07-03T10:18:00,mcc,52.48
2022-07-03T10:19:00,mcc,49.60
2022-07-03T10:20:00,mcc,49.15
2022-07-03T10:21:00,mcc,50.91
2022-07-03T10:22:00,mcc,51.43
2022-07-03T10:23:00,mcc,54.11
2022-07-03T10:24:00,mcc,49.66
2022-07-03T10:25:00,mcc,49.71
2022-07-03T10:26:00,mcc,49.54
2022-07-03T10:27:00,mcc,49.19
2022-07-03T10:28:00,mcc,52.60
2022-07-03T10:29:00,mcc,50.02
2022-07-03T10:30:00,mcc,50.10
2022-07-03T10:31:00,mcc,50.10
2022-07-03T10:32:00,mcc,51.61
2022-07-03T10:33:00,mcc,57.56
2022-07-03T10:34:00,mcc,54.33
2022-07-03T10:35:00,mcc,55.48
2022-07-03T10:36:00,mcc,66.47
2022-07-03T10:37:00,mcc,66.29
2022-07-03T10:38:00,mcc,52.78
2022-07-03T10:39:00,mcc,52.12
2022-07-03T10:40:00,mcc,51.86
2022-07-03T10:41:00,mcc,59.46
2022-07-03T10:42:00,mcc,57.38
2022-07-03T10:43:00,mcc,53.01
2022-07-03T10:44:00,mcc,51.62
2022-07-03T10:45:00,mcc,49.67
2022-07-03T10:46:00,mcc,53.86
2022-07-03T10:47:00,mcc,57.98
2022-07-03T10:48:00,mcc,50.08
2022-07-03T10:49:00,mcc,49.46
2022-07-03T10:50:00,mcc,51.16
2022-07-03T10:51:00,mcc,55.64
2022-07-03T10:52:00,mcc,53.84
2022-07-03T10:53:00,mcc,52.52
2022-07-03T10:54:00,mcc,54.00
2022-07-03T10:55:00,mcc,53.96
2022-07-03T10:56:00,mcc,55.16
2022-07-03T10:57:00,mcc,53.23
2022-07-03T10:58:00,mcc,49.78
2022-07-03T10:59:00,mcc,52.45
2022-07-03T11:00:00,mcc,50.09
2022-07-03T11:01:00,mcc,51.62
2022-07-03T11:02:00,mcc,51.66
2022-07-03T11:03:00,mcc,54.00
2022-07-03T11:04:00,mcc,54.50
2022-07-03T11:05:00,mcc,61.98
2022-07-03T11:06:00,mcc,54.28
2022-07-03T11:07:00,mcc,53.34
2022-07-03T11:08:00,mcc,54.07
2022-07-03T11:09:00,mcc,54.64
2022-07-03T11:10:00,mcc,51.53
2022-07-03T11:11:00,mcc,50.38
2022-07-03T11:12:00,mcc,48.05
2022-07-03T11:13:00,mcc,48.12
2022-07-03T11:14:00,mcc,47.98
2022-07-03T11:15:00,mcc,48.66
2022-07-03T11:16:00,mcc,50.33
2022-07-03T11:17:00,mcc,52.55
2022-07-03T11:18:00,mcc,50.55
2022-07-03T11:19:00,mcc,52.27
2022-07-03T11:20:00,mcc,49.59
2022-07-03T11:21:00,mcc,49.57
2022-07-03T11:22:00,mcc,53.01
2022-07-03T11:23:00,mcc,49.71
2022-07-03T11:24:00,mcc,59.39
2022-07-03T11:25:00,mcc,50.56
2022-07-03T11:26:00,mcc,49.37
2022-07-03T11:27:00,mcc,54.57
2022-07-03T11:28:00,mcc,51.43
2022-07-03T11:29:00,mcc,51.18
2022-07-03T11:30:00,mcc,51.83
2022-07-03T11:31:00,mcc,51.32
2022-07-03T11:32:00,mcc,55.18
2022-07-03T11:33:00,mcc,56.06
2022-07-03T11:34:00,mcc,57.63
2022-07-03T11:35:00,mcc,55.98
2022-07-03T11:36:00,mcc,67.79
2022-07-03T11:37:00,mcc,65.66
2022-07-03T11:38:00,mcc,64.86
2022-07-03T11:39:00,mcc,67.02
2022-07-03T11:40:00,mcc,67.55
2022-07-03T11:41:00,mcc,59.23
2022-07-03T11:42:00,mcc,62.07
2022-07-03T11:43:00,mcc,65.39
2022-07-03T11:44:00,mcc,55.78
2022-07-03T11:45:00,mcc,55.15
2022-07-03T11:46:00,mcc,54.44
2022-07-03T11:47:00,mcc,55.92
2022-07-03T11:48:00,mcc,53.83
2022-07-03T11:49:00,mcc,53.55
2022-07-03T11:50:00,mcc,55.49
2022-07-03T11:51:00,mcc,54.52
2022-07-03T11:52:00,mcc,55.63
2022-07-03T11:53:00,mcc,67.65
2022-07-03T11:54:00,mcc,56.51
2022-07-03T11:55:00,mcc,54.18
2022-07-03T11:56:00,mcc,51.52
2022-07-03T11:57:00,mcc,53.96
2022-07-03T11:58:00,mcc,52.85
2022-07-03T11:59:00,mcc,53.18
2022-07-03T12:00:00,mcc,55.83
2022-07-03T12:01:00,mcc,55.01
2022-07-03T12:02:00,mcc,62.68
2022-07-03T12:03:00,mcc,54.47
2022-07-03T12:04:00,mcc,55.45
2022-07-03T12:05:00,mcc,58.51
2022-07-03T12:06:00,mcc,55.63
2022-07-03T12:07:00,mcc,56.25
2022-07-03T12:08:00,mcc,56.34
2022-07-03T12:09:00,mcc,55.41
2022-07-03T12:10:00,mcc,57.27
2022-07-03T12:11:00,mcc,54.86
2022-07-03T12:12:00,mcc,57.24
2022-07-03T12:13:00,mcc,57.46
2022-07-03T12:14:00,mcc,58.14
2022-07-03T12:15:00,mcc,62.06
2022-07-03T12:16:00,mcc,61.54
2022-07-03T12:17:00,mcc,67.91
2022-07-03T12:18:00,mcc,58.14
2022-07-03T12:19:00,mcc,56.14
2022-07-03T12:20:00,mcc,55.80
2022-07-03T12:21:00,mcc,64.15
2022-07-03T12:22:00,mcc,55.17
2022-07-03T12:23:00,mcc,55.81
2022-07-03T12:24:00,mcc,52.56
2022-07-03T12:25:00,mcc,53.91
2022-07-03T12:26:00,mcc,56.78
2022-07-03T12:27:00,mcc,56.16
2022-07-03T12:28:00,mcc,59.46
2022-07-03T12:29:00,mcc,57.59
2022-07-03T12:30:00,mcc,58.90
2022-07-03T12:31:00,mcc,53.31
2022-07-03T12:32:00,mcc,55.40
2022-07-03T12:33:00,mcc,57.84
2022-07-03T12:34:00,mcc,54.34
2022-07-03T12:35:00,mcc,54.25
2022-07-03T12:36:00,mcc,53.99
2022-07-03T12:37:00,mcc,53.54
2022-07-03T12:38:00,mcc,57.07
2022-07-03T12:39:00,mcc,50.76
2022-07-03T12:40:00,mcc,49.86
2022-07-03T12:41:00,mcc,50.37
2022-07-03T12:42:00,mcc,50.42
2022-07-03T12:43:00,mcc,51.44
2022-07-03T12:44:00,mcc,49.56
2022-07-03T12:45:00,mcc,50.80
2022-07-03T12:46:00,mcc,51.04
2022-07-03T12:47:00,mcc,50.28
2022-07-03T12:48:00,mcc,51.86
2022-07-03T12:49:00,mcc,48.50
2022-07-03T12:50:00,mcc,48.70
2022-07-03T12:51:00,mcc,48.83
2022-07-03T12:52:00,mcc,49.03
2022-07-03T12:53:00,mcc,51.48
2022-07-03T12:54:00,mcc,50.97
2022-07-03T12:55:00,mcc,49.84
2022-07-03T12:56:00,mcc,51.70
2022-07-03T12:57:00,mcc,49.79
2022-07-03T12:58:00,mcc,51.29
2022-07-03T12:59:00,mcc,57.61
2022-07-03T13:00:00,mcc,49.91
2022-07-03T13:01:00,mcc,51.01
2022-07-03T13:02:00,mcc,48.84
2022-07-03T13:03:00,mcc,48.52
2022-07-03T13:04:00,mcc,47.94
2022-07-03T13:05:00,mcc,47.22
2022-07-03T13:06:00,mcc,50.05
2022-07-03T13:07:00,mcc,48.15
2022-07-03T13:08:00,mcc,46.53
2022-07-03T13:09:00,mcc,46.69
2022-07-03T13:10:00,mcc,60.14
2022-07-03T13:11:00,mcc,48.47
2022-07-03T13:12:00,mcc,48.23
2022-07-03T13:13:00,mcc,49.13
2022-07-03T13:14:00,mcc,49.43
2022-07-03T13:15:00,mcc,48.33
2022-07-03T13:16:00,mcc,49.95
2022-07-03T13:17:00,mcc,46.97
2022-07-03T13:18:00,mcc,55.49